Date,TemperatureHighF,TemperatureAvgF,TemperatureLowF,DewpointHighF,DewpointAvgF,DewpointLowF,HumidityHigh,HumidityAvg,HumidityLow,PressureMaxIn,PressureMinIn,WindSpeedMaxMPH,WindSpeedAvgMPH,GustSpeedMaxMPH,PrecipitationSumIn
2013-1-1,31.0,13.8,3.0,18.0,6.7,-3.0,88,75,49,0.00,40.00,6,3,11,0.00
2013-1-2,28.0,11.5,-1.0,13.0,2.6,-8.0,90,69,44,0.00,40.00,4,3,9,0.00
2013-1-3,30.0,12.2,0.0,8.0,1.0,-7.0,82,63,33,0.00,40.00,5,3,11,0.00
2013-1-4,31.0,13.0,1.0,7.0,-0.4,-9.0,78,57,27,0.00,40.00,6,3,11,0.00
2013-1-5,32.0,14.5,0.0,11.0,1.6,-9.0,83,59,30,0.00,40.00,5,3,9,0.00
2013-1-6,35.0,18.7,5.0,17.0,6.9,-1.0,80,62,29,0.00,40.00,7,3,10,0.00
2013-1-7,39.0,21.9,6.0,15.0,8.7,-2.0,86,60,29,0.00,40.00,5,2,9,0.00
2013-1-8,39.0,22.0,8.0,18.0,8.7,-3.0,80,59,32,0.00,40.00,6,2,11,0.00
2013-1-9,47.0,25.9,11.0,23.0,13.5,5.0,87,63,29,0.00,40.00,6,2,10,0.00
2013-1-10,43.0,33.4,16.0,34.0,19.2,9.0,84,58,31,0.00,40.00,17,8,40,0.00
2013-1-11,37.0,23.9,12.0,34.0,14.4,4.0,91,68,39,0.00,40.00,18,10,40,0.00
2013-1-12,26.0,9.8,-2.0,13.0,0.9,-10.0,82,68,40,0.00,40.00,6,3,12,0.00
2013-1-13,19.0,10.3,2.0,10.0,3.3,-6.0,88,73,61,0.00,40.00,6,2,11,0.00
2013-1-14,23.0,8.1,-2.0,7.0,-0.4,-6.0,91,70,37,0.00,40.00,6,3,9,0.00
2013-1-15,25.0,6.4,-10.0,5.0,-5.9,-19.0,79,59,35,0.00,40.00,6,3,10,0.00
2013-1-16,30.0,15.0,2.0,12.0,2.9,-5.0,84,61,32,0.00,40.00,6,3,10,0.00
2013-1-17,38.0,22.7,7.0,18.0,10.2,0.0,86,61,35,0.00,40.00,4,2,7,0.00
2013-1-18,42.0,23.4,9.0,22.0,12.1,2.0,90,65,35,0.00,40.00,4,2,7,0.00
2013-1-19,42.0,24.0,8.0,19.0,11.9,3.0,89,63,28,0.00,40.00,5,3,8,0.00
2013-1-20,43.0,25.2,7.0,17.0,9.8,0.0,79,55,25,0.00,40.00,4,2,10,0.00
2013-1-21,44.0,25.8,11.0,17.0,9.7,-3.0,78,53,26,0.00,40.00,5,3,10,0.00
2013-1-22,46.0,27.3,12.0,19.0,10.2,1.0,75,52,25,0.00,40.00,6,2,10,0.00
2013-1-23,45.0,27.9,14.0,22.0,12.0,1.0,73,53,29,0.00,40.00,6,3,9,0.00
2013-1-24,42.0,33.3,25.0,36.0,24.0,15.0,94,71,38,0.00,40.00,6,2,9,0.00
2013-1-25,42.0,35.7,32.0,39.0,34.8,30.0,100,97,87,0.00,40.00,3,1,7,0.01
2013-1-26,38.0,34.9,32.0,38.0,34.9,32.0,100,100,100,0.00,40.00,3,0,8,0.87
2013-1-27,52.0,39.3,32.0,39.0,34.0,31.0,100,83,44,0.00,40.00,11,2,24,0.58
2013-1-28,42.0,33.8,25.0,39.0,31.3,25.0,100,91,71,0.00,40.00,10,5,28,0.27
2013-1-29,33.0,23.3,13.0,25.0,17.0,10.0,100,79,47,0.00,40.00,8,3,15,0.09
2013-1-30,37.0,22.3,11.0,27.0,15.2,6.0,91,75,43,0.00,40.00,8,4,15,0.01
2013-1-31,45.0,35.5,24.0,27.0,23.2,19.0,100,64,38,0.00,40.00,6,3,12,0.00
2013-2-1,48.0,33.2,21.0,28.0,21.2,14.0,81,63,39,0.00,40.00,6,3,14,0.00
2013-2-2,46.0,32.6,22.0,27.0,19.9,12.0,80,61,37,0.00,40.00,5,2,9,0.00
2013-2-3,38.0,30.7,26.0,36.0,25.7,18.0,100,82,56,0.00,40.00,6,2,12,0.07
2013-2-4,42.0,32.3,26.0,35.0,28.3,22.0,100,86,63,0.00,40.00,5,3,10,0.01
2013-2-5,52.0,33.3,22.0,27.0,19.5,14.0,88,60,28,0.00,40.00,7,3,12,0.00
2013-2-6,51.0,36.5,27.0,32.0,24.5,19.0,84,63,36,0.00,40.00,10,4,16,0.00
2013-2-7,50.0,35.0,25.0,29.0,22.3,16.0,90,64,28,0.00,40.00,6,3,10,0.00
2013-2-8,53.0,40.4,27.0,27.0,18.2,13.0,81,46,22,0.00,40.00,20,9,39,0.00
2013-2-9,39.0,30.7,22.0,35.0,24.3,17.0,100,80,44,0.00,40.00,9,3,20,0.00
2013-2-10,37.0,28.7,21.0,26.0,21.6,17.0,100,77,46,0.00,40.00,6,3,12,0.18
2013-2-11,34.0,25.7,16.0,28.0,20.0,10.0,100,80,50,0.00,40.00,5,2,12,0.08
2013-2-12,37.0,21.8,9.0,19.0,11.0,3.0,94,67,35,0.00,40.00,6,3,12,0.03
2013-2-13,44.0,26.7,14.0,25.0,15.5,7.0,90,65,35,0.00,40.00,5,3,10,0.00
2013-2-14,46.0,30.8,18.0,24.0,17.7,10.0,81,60,35,0.00,40.00,9,4,17,0.00
2013-2-15,47.0,31.4,18.0,20.0,13.5,7.0,76,51,19,0.00,40.00,7,3,13,0.00
2013-2-16,53.0,34.2,20.0,20.0,13.3,7.0,71,46,20,0.00,40.00,6,3,11,0.00
2013-2-17,53.0,36.8,26.0,19.0,13.1,6.0,59,40,18,0.00,40.00,10,5,30,0.00
2013-2-18,44.0,32.7,23.0,23.0,9.1,-4.0,62,40,17,0.00,40.00,9,4,27,0.00
2013-2-19,44.0,30.6,15.0,15.0,5.6,-5.0,57,37,15,0.00,40.00,6,3,11,0.00
2013-2-20,42.0,34.6,31.0,33.0,20.4,11.0,100,57,36,0.00,40.00,9,4,18,0.00
2013-2-21,41.0,32.5,27.0,33.0,29.5,25.0,100,90,54,0.00,40.00,7,2,12,0.09
2013-2-22,34.0,28.0,18.0,29.0,22.9,12.0,100,83,49,0.00,40.00,11,4,18,0.12
2013-2-23,41.0,24.4,12.0,32.0,16.5,5.0,100,75,34,0.00,40.00,11,4,22,0.01
2013-2-24,34.0,23.5,8.0,24.0,15.7,4.0,100,74,41,0.00,40.00,11,3,22,0.13
2013-2-25,42.0,27.5,12.0,20.0,12.3,7.0,86,57,24,0.00,40.00,6,3,13,0.01
2013-2-26,33.0,26.8,21.0,24.0,17.2,13.0,100,68,44,0.00,40.00,14,6,26,0.02
2013-2-27,42.0,26.2,13.0,17.0,10.4,3.0,82,55,24,0.00,40.00,7,4,13,0.02
2013-2-28,46.0,28.6,14.0,19.0,9.7,2.0,72,48,22,0.00,40.00,7,4,17,0.00
2013-3-1,51.0,36.2,24.0,25.0,19.1,10.0,78,52,32,0.00,40.00,9,4,21,0.00
2013-3-2,61.0,41.7,26.0,31.0,23.4,17.0,80,53,24,0.00,40.00,6,3,12,0.00
2013-3-3,54.0,42.5,32.0,28.0,23.5,17.0,75,49,27,0.00,40.00,9,4,19,0.00
2013-3-4,52.0,41.1,32.0,38.0,29.1,16.0,100,66,28,0.00,40.00,13,4,25,0.11
2013-3-5,56.0,36.2,23.0,24.0,14.9,9.0,79,47,18,0.00,40.00,6,3,12,0.01
2013-3-6,62.0,43.9,28.0,26.0,19.1,12.0,71,42,14,0.00,40.00,13,5,25,0.00
2013-3-7,63.0,49.8,39.0,26.0,15.8,1.0,52,29,10,0.00,40.00,14,6,29,0.00
2013-3-8,46.0,40.4,33.0,39.0,26.3,14.0,100,62,31,0.00,40.00,11,4,20,0.09
2013-3-9,36.0,33.1,30.0,36.0,29.3,22.0,100,86,64,0.00,40.00,6,3,14,0.06
2013-3-10,49.0,37.3,22.0,25.0,17.6,12.0,78,48,26,0.00,40.00,8,5,17,0.01
2013-3-11,55.0,38.1,26.0,29.0,19.8,13.0,75,52,25,0.00,40.00,6,4,14,0.00
2013-3-12,60.0,43.6,31.0,31.0,24.0,20.0,77,50,24,0.00,40.00,6,4,14,0.00
2013-3-13,67.0,47.3,31.0,29.0,23.6,14.0,80,46,16,0.00,40.00,7,4,13,0.00
2013-3-14,74.0,51.0,33.0,28.0,22.6,16.0,70,39,11,0.00,40.00,8,4,13,0.00
2013-3-15,74.0,54.4,38.0,29.0,24.6,21.0,58,35,14,0.00,40.00,7,4,13,0.00
2013-3-16,61.0,48.7,39.0,42.0,31.0,24.0,85,52,31,0.00,40.00,12,5,19,0.00
2013-3-17,60.0,46.8,35.0,30.0,17.9,5.0,70,38,11,0.00,40.00,19,8,38,0.00
2013-3-18,56.0,42.9,29.0,17.0,9.5,1.0,56,30,11,0.00,40.00,11,6,24,0.00
2013-3-19,58.0,43.4,33.0,17.0,8.0,-10.0,49,27,7,0.00,40.00,10,4,17,0.00
2013-3-20,61.0,42.7,27.0,28.0,16.3,9.0,53,36,20,0.00,40.00,12,4,26,0.00
2013-3-21,56.0,47.1,34.0,33.0,16.3,-10.0,72,35,7,0.00,40.00,21,8,38,0.00
2013-3-22,58.0,41.0,29.0,11.0,4.3,-9.0,45,25,6,0.00,40.00,17,8,31,0.00
2013-3-23,38.0,29.6,21.0,14.0,2.9,-5.0,56,33,16,0.00,40.00,18,9,31,0.00
2013-3-24,45.0,28.9,14.0,7.0,2.1,-1.0,59,35,15,0.00,40.00,9,5,20,0.00
2013-3-25,51.0,34.8,16.0,9.0,3.9,-8.0,62,31,10,0.00,40.00,8,4,24,0.00
2013-3-26,62.0,45.6,30.0,21.0,13.4,9.0,57,31,12,0.00,40.00,14,6,26,0.00
2013-3-27,71.0,50.7,34.0,21.0,13.0,6.0,48,27,8,0.00,40.00,11,6,25,0.00
2013-3-28,69.0,62.0,50.0,15.0,13.1,12.0,23,15,11,0.00,40.00,11,7,20,0.00
2013-3-29,70.0,56.1,39.0,25.0,18.3,14.0,43,25,12,0.00,40.00,8,5,20,0.00
2013-3-30,70.0,54.9,39.0,27.0,23.4,16.0,53,32,14,0.00,40.00,11,5,21,0.00
2013-3-31,74.0,55.5,35.0,30.0,23.0,12.0,66,35,10,0.00,40.00,10,5,20,0.00
2013-4-1,68.0,55.5,42.0,36.0,22.4,6.0,77,34,10,0.00,40.00,18,8,32,0.00
2013-4-2,59.0,47.6,36.0,31.0,24.5,20.0,71,42,23,0.00,40.00,12,4,26,0.00
2013-4-3,68.0,47.4,30.0,31.0,23.8,6.0,85,48,9,0.00,40.00,10,4,19,0.00
2013-4-4,74.0,55.1,33.0,25.0,18.6,13.0,57,28,11,0.00,40.00,9,4,18,0.00
2013-4-5,72.0,55.6,43.0,33.0,22.0,16.0,53,29,15,0.00,40.00,16,6,37,0.00
2013-4-6,70.0,54.1,36.0,32.0,23.1,9.0,73,37,10,0.00,40.00,10,5,21,0.00
2013-4-7,70.0,55.1,37.0,30.0,21.9,8.0,67,32,9,0.00,40.00,13,5,28,0.00
2013-4-8,59.0,48.9,38.0,41.0,26.0,12.0,92,47,20,0.00,40.00,22,10,40,0.15
2013-4-9,41.0,35.6,27.0,34.0,27.5,16.0,89,73,56,0.00,40.00,15,7,25,0.05
2013-4-10,48.0,34.8,22.0,19.0,14.7,10.0,75,46,23,0.00,40.00,11,7,23,0.01
2013-4-11,58.0,41.0,30.0,33.0,25.5,19.0,77,55,34,0.00,40.00,6,3,14,0.00
2013-4-12,66.0,49.6,32.0,32.0,23.8,15.0,83,44,14,0.00,40.00,7,4,16,0.00
2013-4-13,67.0,54.5,33.0,25.0,18.9,12.0,56,29,13,0.00,40.00,21,12,48,0.00
2013-4-14,61.0,50.1,41.0,41.0,23.7,5.0,95,44,11,0.00,40.00,13,7,31,0.03
2013-4-15,55.0,48.7,38.0,34.0,29.0,20.0,76,48,35,0.00,40.00,19,12,35,0.01
2013-4-16,66.0,52.9,34.0,30.0,23.6,17.0,79,35,15,0.00,40.00,25,16,45,0.00
2013-4-17,39.0,33.4,27.0,33.0,26.6,13.0,99,78,48,0.00,40.00,18,9,27,0.03
2013-4-18,43.0,31.3,18.0,16.0,11.7,6.0,78,47,21,0.00,40.00,11,6,22,0.01
2013-4-19,58.0,40.3,21.0,21.0,13.7,10.0,69,38,16,0.00,40.00,8,4,19,0.00
2013-4-20,58.0,45.9,34.0,34.0,28.3,21.0,73,52,34,0.00,40.00,12,5,23,0.00
2013-4-21,67.0,49.5,30.0,29.0,20.9,0.0,87,43,7,0.00,40.00,13,5,23,0.00
2013-4-22,72.0,58.4,46.0,26.0,17.7,9.0,45,23,10,0.00,40.00,16,7,33,0.00
2013-4-23,54.0,44.4,34.0,32.0,12.6,-7.0,83,34,8,0.00,40.00,15,8,27,0.00
2013-4-24,63.0,46.4,31.0,14.0,7.4,-2.0,46,24,9,0.00,40.00,11,4,20,0.00
2013-4-25,73.0,51.8,33.0,18.0,11.7,-3.0,49,24,5,0.00,40.00,14,5,29,0.00
2013-4-26,74.0,56.6,40.0,23.0,12.8,3.0,51,22,7,0.00,40.00,9,4,17,0.00
2013-4-27,77.0,57.3,37.0,21.0,11.5,-2.0,47,21,6,0.00,40.00,8,5,17,0.00
2013-4-28,81.0,60.9,39.0,19.0,13.1,7.0,39,19,6,0.00,40.00,6,4,17,0.00
2013-4-29,82.0,63.7,44.0,25.0,17.1,-1.0,38,20,4,0.00,40.00,10,5,28,0.00
2013-4-30,81.0,69.2,53.0,22.0,12.6,1.0,24,13,6,0.00,40.00,20,11,44,0.00
2013-5-1,62.0,51.4,42.0,34.0,15.0,-17.0,63,30,4,0.00,40.00,21,10,33,0.00
2013-5-2,61.0,46.7,33.0,15.0,3.4,-7.0,35,19,6,0.00,40.00,12,6,27,0.00
2013-5-3,72.0,45.8,32.0,15.0,6.8,-14.0,39,24,3,0.00,40.00,7,4,16,0.00
2013-5-4,78.0,58.6,35.0,12.0,3.5,-6.0,33,14,4,0.00,40.00,15,6,25,0.00
2013-5-5,75.0,63.8,53.0,22.0,10.4,2.0,21,12,7,0.00,40.00,17,10,30,0.00
2013-5-6,67.0,53.8,46.0,45.0,35.6,22.0,84,54,22,0.00,40.00,12,5,25,0.03
2013-5-7,61.0,48.5,41.0,46.0,40.4,37.0,97,76,46,0.00,40.00,12,5,23,0.06
2013-5-8,60.0,49.2,40.0,43.0,38.0,32.0,99,68,38,0.00,40.00,11,4,20,0.10
2013-5-9,67.0,50.6,42.0,47.0,41.1,39.0,99,73,37,0.00,40.00,7,3,17,0.16
2013-5-10,72.0,57.8,39.0,41.0,34.0,23.0,88,47,17,0.00,40.00,19,6,32,0.07
2013-5-11,76.0,59.5,42.0,36.0,30.2,23.0,62,37,16,0.00,40.00,11,5,23,0.00
2013-5-12,81.0,64.5,46.0,36.0,31.1,26.0,60,33,14,0.00,40.00,8,4,21,0.00
2013-5-13,89.0,68.4,47.0,38.0,30.6,18.0,55,29,8,0.00,40.00,15,5,30,0.00
2013-5-14,87.0,69.1,51.0,37.0,32.3,21.0,51,29,9,0.00,40.00,13,6,27,0.00
2013-5-15,86.0,70.1,52.0,38.0,31.1,4.0,51,28,7,0.00,40.00,14,5,27,0.00
2013-5-16,84.0,63.0,51.0,27.0,1.5,-99.9,30,16,8,0.00,40.00,14,7,27,0.00
2013-5-17,79.0,68.5,57.0,20.0,8.2,-99.9,20,12,5,0.00,40.00,16,10,30,0.00
2013-5-18,74.0,62.0,51.0,39.0,26.0,18.0,52,26,14,0.00,40.00,21,6,40,0.00
2013-5-19,68.0,55.3,43.0,33.0,28.1,20.0,62,38,18,0.00,40.00,16,5,29,0.00
2013-5-20,67.0,54.6,41.0,36.0,32.0,29.0,65,44,28,0.00,40.00,16,5,35,0.00
2013-5-21,78.0,60.1,41.0,36.0,29.0,16.0,74,38,11,0.00,40.00,7,5,32,0.00
2013-5-22,82.0,66.2,48.0,28.0,19.9,11.0,42,21,7,0.00,40.00,15,8,30,0.00
2013-5-23,86.0,71.6,56.0,24.0,8.9,-5.0,22,11,4,0.00,40.00,21,11,38,0.00
2013-5-24,82.0,70.8,58.0,22.0,10.4,2.0,18,11,5,0.00,40.00,16,9,33,0.00
2013-5-25,85.0,69.8,54.0,15.0,9.1,1.0,21,10,5,0.00,40.00,14,8,30,0.00
2013-5-26,83.0,70.2,57.0,16.0,6.5,-8.0,17,9,4,0.00,40.00,13,8,27,0.00
2013-5-27,82.0,67.9,51.0,17.0,9.1,5.0,20,11,6,0.00,40.00,13,7,25,0.00
2013-5-28,79.0,66.0,51.0,40.0,18.6,12.0,54,18,8,0.00,40.00,17,10,31,0.11
2013-5-29,69.0,56.5,43.0,48.0,36.2,20.0,99,57,16,0.00,40.00,15,6,26,0.15
2013-5-30,76.0,61.8,45.0,33.0,23.8,17.0,54,27,11,0.00,40.00,14,7,29,0.00
2013-5-31,75.0,61.5,46.0,23.0,13.6,1.0,39,18,7,0.00,40.00,12,7,26,0.00
2013-6-1,82.0,63.9,42.0,22.0,13.7,4.0,32,16,6,0.00,40.00,6,4,14,0.00
2013-6-2,91.0,69.9,44.0,25.0,14.4,4.0,34,15,5,0.00,40.00,13,6,30,0.00
2013-6-3,87.0,72.5,55.0,29.0,22.2,16.0,28,16,7,0.00,40.00,13,7,37,0.00
2013-6-4,88.0,73.8,55.0,32.0,24.4,10.0,36,19,6,0.00,40.00,10,5,30,0.00
2013-6-5,88.0,73.1,54.0,33.0,22.7,16.0,38,18,8,0.00,40.00,12,6,22,0.00
2013-6-6,91.0,72.8,51.0,28.0,20.5,10.0,34,17,5,0.00,40.00,11,5,20,0.00
2013-6-7,89.0,73.0,52.0,30.0,24.4,12.0,39,19,6,0.00,40.00,13,6,26,0.00
2013-6-8,93.0,76.1,54.0,32.0,25.2,16.0,38,19,6,0.00,40.00,11,6,23,0.00
2013-6-9,97.0,79.4,57.0,34.0,23.2,14.0,34,16,5,0.00,40.00,8,6,18,0.00
2013-6-10,98.0,84.4,60.0,29.0,16.8,4.0,27,10,4,0.00,40.00,15,8,32,0.00
2013-6-11,92.0,78.9,64.0,17.0,10.6,5.0,13,8,5,0.00,40.00,18,10,34,0.00
2013-6-12,93.0,76.5,57.0,24.0,15.4,1.0,25,12,3,0.00,40.00,13,7,29,0.00
2013-6-13,92.0,79.0,59.0,27.0,21.4,15.0,26,13,6,0.00,40.00,19,9,35,0.00
2013-6-14,92.0,75.1,60.0,30.0,15.3,-11.0,30,14,2,0.00,40.00,10,5,30,0.00
2013-6-15,88.0,73.0,51.0,33.0,19.8,7.0,27,14,7,0.00,40.00,16,7,33,0.00
2013-6-16,89.0,73.4,58.0,42.0,30.9,17.0,39,24,8,0.00,40.00,11,6,28,0.01
2013-6-17,93.0,74.9,55.0,30.0,17.8,4.0,33,15,4,0.00,40.00,12,5,23,0.01
2013-6-18,92.0,73.6,55.0,27.0,14.2,-10.0,23,12,2,0.00,40.00,15,7,32,0.00
2013-6-19,89.0,76.6,64.0,13.0,2.4,-12.0,12,6,2,0.00,40.00,22,10,38,0.00
2013-6-20,86.0,71.1,58.0,15.0,9.0,3.0,16,10,5,0.00,40.00,15,7,31,0.00
2013-6-22,90.0,82.0,69.0,15.0,6.6,1.0,10,6,4,0.00,40.00,15,9,32,0.00
2013-6-23,89.0,74.7,53.0,23.0,12.1,-2.0,22,11,3,0.00,40.00,12,7,27,0.00
2013-6-24,85.0,75.6,64.0,18.0,10.1,3.0,13,8,5,0.00,40.00,17,10,32,0.00
2013-6-25,89.0,78.0,62.0,28.0,19.1,13.0,19,11,8,0.00,40.00,12,7,22,0.00
2013-6-26,100.0,82.0,56.0,32.0,26.5,18.0,35,16,6,0.00,40.00,9,5,20,0.00
2013-6-27,105.0,83.6,63.0,35.0,28.7,18.0,30,16,5,0.00,40.00,7,5,15,0.00
2013-6-28,104.0,84.2,64.0,35.0,28.9,19.0,32,16,5,0.00,40.00,11,5,23,0.00
2013-6-29,101.0,84.5,68.0,38.0,31.8,25.0,31,17,7,0.00,40.00,13,5,27,0.00
2013-6-30,98.0,81.7,66.0,42.0,37.3,33.0,38,22,11,0.00,40.00,11,6,24,0.00
2013-7-1,98.0,81.0,63.0,42.0,34.6,22.0,43,22,7,0.00,40.00,12,5,25,0.00
2013-7-2,95.0,79.9,61.0,41.0,33.0,25.0,33,19,10,0.00,40.00,13,5,22,0.00
2013-7-3,98.0,79.8,60.0,41.0,32.6,18.0,38,21,6,0.00,40.00,13,6,33,0.00
2013-7-4,94.0,83.6,70.0,40.0,37.2,35.0,29,20,13,0.00,40.00,8,4,20,0.00
2013-7-5,96.0,84.0,69.0,46.0,39.5,34.0,36,22,13,0.00,40.00,12,6,26,0.00
2013-7-6,94.0,80.5,67.0,49.0,42.7,35.0,43,27,15,0.00,40.00,14,4,24,0.01
2013-7-7,96.0,81.3,65.0,49.0,42.0,35.0,49,27,12,0.00,40.00,13,4,34,0.01
2013-7-8,96.0,79.8,63.0,47.0,39.4,27.0,49,27,10,0.00,40.00,12,4,23,0.00
2013-7-9,96.0,83.4,67.0,41.0,34.4,22.0,33,19,7,0.00,40.00,12,6,30,0.00
2013-7-10,102.0,85.1,69.0,40.0,26.7,-99.9,29,15,5,0.00,40.00,8,4,21,0.00
2013-7-11,96.0,80.4,65.0,54.0,44.1,37.0,55,30,15,0.00,40.00,12,6,34,0.00
2013-7-12,93.0,76.5,62.0,56.0,51.2,44.0,74,46,20,0.00,40.00,15,6,27,0.12
2013-7-13,92.0,75.1,61.0,62.0,56.2,48.0,99,59,22,0.00,40.00,10,4,19,0.15
2013-7-14,94.0,79.4,66.0,56.0,48.9,39.0,68,39,16,0.00,40.00,13,6,22,0.01
2013-7-15,96.0,76.6,64.0,53.0,48.4,44.0,53,39,18,0.00,40.00,13,6,24,0.00
2013-7-16,91.0,78.8,66.0,61.0,54.5,49.0,78,47,26,0.00,40.00,9,6,23,0.12
2013-7-17,93.0,75.5,64.0,59.0,54.0,46.0,82,52,22,0.00,40.00,9,4,25,0.12
2013-7-18,92.0,74.8,61.0,62.0,57.9,48.0,99,61,24,0.00,40.00,14,5,26,0.39
2013-7-19,92.0,72.6,60.0,62.0,57.8,50.0,99,66,24,0.00,40.00,13,5,31,0.26
2013-7-20,95.0,76.3,62.0,56.0,48.0,-99.9,71,43,12,0.00,40.00,15,3,22,0.20
2013-7-21,97.0,78.5,62.0,50.0,41.4,26.0,49,30,8,0.00,40.00,12,5,26,0.01
2013-7-22,98.0,80.2,62.0,48.0,39.4,16.0,51,28,7,0.00,40.00,9,4,18,0.00
2013-7-23,98.0,78.3,66.0,49.0,40.3,28.0,39,27,11,0.00,40.00,16,6,31,0.00
2013-7-24,91.0,75.5,67.0,54.0,44.2,40.0,54,34,19,0.00,40.00,7,4,19,0.00
2013-7-25,93.0,78.7,61.0,51.0,45.1,33.0,65,34,12,0.00,40.00,8,5,17,0.00
2013-7-26,98.0,81.3,63.0,47.0,40.4,31.0,48,27,11,0.00,40.00,13,5,29,0.00
2013-7-27,90.0,78.5,65.0,55.0,47.3,43.0,69,36,20,0.00,40.00,13,7,32,0.00
2013-7-28,76.0,66.0,60.0,61.0,58.0,53.0,96,77,52,0.00,40.00,9,5,17,0.79
2013-7-29,82.0,65.1,56.0,61.0,57.3,52.0,99,79,37,0.00,40.00,8,4,25,0.90
2013-7-30,90.0,72.1,54.0,60.0,50.5,40.0,99,55,19,0.00,40.00,8,3,14,0.01
2013-7-31,94.0,77.3,58.0,51.0,43.2,33.0,70,36,12,0.00,40.00,8,4,14,0.00
2013-8-1,77.0,70.1,64.0,62.0,53.8,42.0,85,58,36,0.00,40.00,10,5,22,0.12
2013-8-2,86.0,70.9,55.0,62.0,56.7,52.0,99,66,33,0.00,40.00,10,4,22,0.15
2013-8-3,88.0,73.5,64.0,58.0,54.0,50.0,75,52,28,0.00,40.00,16,6,26,0.00
2013-8-4,90.0,70.3,57.0,60.0,52.5,46.0,74,56,22,0.00,40.00,11,4,19,0.15
2013-8-5,88.0,72.7,63.0,59.0,55.5,47.0,81,59,26,0.00,40.00,10,3,16,0.01
2013-8-6,88.0,71.0,63.0,54.0,51.3,40.0,69,52,24,0.00,40.00,18,5,31,0.00
2013-8-7,78.0,67.3,60.0,54.0,51.4,47.0,75,58,38,0.00,40.00,10,4,19,0.00
2013-8-8,85.0,68.1,59.0,52.0,47.4,41.0,76,51,21,0.00,40.00,10,5,20,0.00
2013-8-9,85.0,67.5,52.0,49.0,45.0,42.0,74,47,24,0.00,40.00,14,5,24,0.01
2013-8-10,83.0,63.9,55.0,54.0,46.4,40.0,87,57,22,0.00,40.00,11,5,31,0.28
2013-8-11,86.0,67.5,48.0,51.0,43.4,31.0,90,51,15,0.00,40.00,8,4,12,0.06
2013-8-12,86.0,71.1,59.0,52.0,44.6,38.0,70,42,21,0.00,40.00,14,5,24,0.01
2013-8-13,89.0,71.4,52.0,47.0,38.3,-99.9,74,37,14,0.00,40.00,9,4,17,0.01
2013-8-14,93.0,73.6,55.0,43.0,31.6,-99.9,53,27,6,0.00,40.00,8,4,18,0.00
2013-8-15,95.0,69.7,55.0,40.0,18.7,-99.9,44,21,7,0.00,40.00,8,4,17,0.00
2013-8-16,97.0,75.3,58.0,37.0,27.2,-99.9,42,21,6,0.00,40.00,7,4,14,0.00
2013-8-17,96.0,74.9,59.0,45.0,39.6,34.0,42,29,13,0.00,40.00,21,5,33,0.00
2013-8-18,94.0,75.2,60.0,49.0,44.4,41.0,56,36,17,0.00,40.00,8,4,19,0.00
2013-8-24,83.0,69.1,58.0,55.0,50.2,46.0,79,54,27,0.00,40.00,12,4,20,0.01
2013-8-25,73.0,62.2,59.0,63.0,59.6,53.0,99,91,69,0.00,40.00,11,3,18,0.25
2013-8-26,82.0,67.2,59.0,63.0,60.6,57.0,99,82,51,0.00,40.00,7,3,12,0.37
2013-8-27,83.0,65.6,58.0,61.0,58.1,56.0,98,80,45,0.00,40.00,3,2,9,0.08
2013-8-28,92.0,82.9,70.0,61.0,51.2,44.0,53,35,20,0.00,40.00,8,4,17,0.00
2013-8-29,94.0,74.2,58.0,56.0,50.8,40.0,77,49,18,0.00,40.00,10,4,29,0.00
2013-8-30,94.0,76.7,64.0,55.0,50.8,44.0,67,44,18,0.00,40.00,14,4,24,0.00
2013-8-31,92.0,73.3,60.0,60.0,52.6,47.0,80,53,22,0.00,40.00,12,4,22,0.03
2013-9-1,93.0,74.3,57.0,56.0,50.5,40.0,78,48,19,0.00,40.00,10,4,19,0.01
2013-9-2,93.0,77.1,63.0,53.0,47.5,40.0,64,39,17,0.00,40.00,7,4,18,0.00
2013-9-3,91.0,75.5,60.0,54.0,48.5,45.0,61,41,22,0.00,40.00,9,5,21,0.00
2013-9-4,98.0,78.4,66.0,54.0,49.1,43.0,62,40,16,0.00,40.00,9,4,23,0.00
2013-9-5,97.0,80.2,63.0,56.0,46.8,35.0,69,36,12,0.00,40.00,12,5,27,0.00
2013-9-6,97.0,79.9,63.0,48.0,40.0,33.0,48,28,11,0.00,40.00,9,4,17,0.00
2013-9-7,97.0,79.4,62.0,49.0,40.3,31.0,50,29,10,0.00,40.00,8,4,23,0.00
2013-9-17,83.0,68.3,55.0,54.0,48.8,46.0,81,53,30,0.00,40.00,12,5,22,0.00
2013-9-18,69.0,64.9,61.0,51.0,49.5,47.0,64,58,46,0.00,40.00,9,6,16,0.01
2013-9-19,79.0,64.5,51.0,50.0,40.1,22.0,83,48,13,0.00,40.00,8,4,14,0.01
2013-9-20,82.0,62.8,43.0,38.0,34.1,26.0,70,40,13,0.00,40.00,7,4,14,0.00
2013-9-21,82.0,66.7,52.0,54.0,40.6,36.0,85,43,20,0.00,40.00,12,6,53,0.03
2013-9-22,69.0,56.8,44.0,53.0,48.1,43.0,99,74,56,0.00,40.00,12,6,27,0.83
2013-9-23,67.0,53.4,40.0,49.0,41.4,36.0,99,69,32,0.00,40.00,7,3,14,0.15
2013-9-24,76.0,57.1,40.0,41.0,34.6,25.0,85,49,17,0.00,40.00,9,4,20,0.00
2013-9-25,79.0,62.0,49.0,35.0,21.9,-99.9,54,28,12,0.00,40.00,23,12,44,0.00
2013-9-26,76.0,66.8,55.0,48.0,24.5,19.0,52,21,12,0.00,40.00,22,14,44,0.00
2013-9-27,61.0,49.4,42.0,54.0,38.0,29.0,95,67,41,0.00,40.00,13,6,30,0.26
2013-9-28,66.0,47.7,32.0,36.0,28.9,23.0,93,55,19,0.00,40.00,7,3,12,0.01
2013-9-29,73.0,53.5,36.0,34.0,26.9,22.0,75,42,15,0.00,40.00,7,5,14,0.00
2013-9-30,80.0,61.0,43.0,37.0,26.9,22.0,55,31,13,0.00,40.00,7,4,15,0.00
2013-10-3,73.0,60.4,41.0,47.0,29.2,22.0,95,33,19,0.00,40.00,22,10,39,0.00
2013-10-4,49.0,37.9,31.0,37.0,31.2,25.0,99,78,53,0.00,40.00,8,3,36,0.28
2013-10-5,58.0,41.1,28.0,33.0,24.6,22.0,88,57,27,0.00,40.00,8,4,16,0.01
2013-10-6,70.0,47.4,31.0,40.0,27.3,17.0,78,50,22,0.00,40.00,8,3,12,0.00
2013-10-7,75.0,55.0,34.0,38.0,31.9,25.0,75,46,22,0.00,40.00,6,3,11,0.00
2013-10-8,73.0,58.8,42.0,36.0,27.7,17.0,62,35,16,0.00,40.00,15,7,30,0.00
2013-10-9,70.0,59.1,50.0,40.0,24.6,18.0,47,28,15,0.00,40.00,16,8,33,0.00
2013-10-17,61.0,43.9,30.0,30.0,23.6,16.0,85,51,18,0.00,40.00,7,3,12,0.00
2013-10-18,58.0,42.7,31.0,26.0,18.3,9.0,70,42,15,0.00,40.00,10,5,22,0.00
2013-10-19,63.0,43.5,29.0,28.0,19.2,14.0,69,42,18,0.00,40.00,7,3,13,0.00
2013-10-20,64.0,45.5,30.0,25.0,21.6,13.0,72,43,17,0.00,40.00,7,4,13,0.00
2013-10-21,65.0,46.6,32.0,27.0,21.8,18.0,71,42,17,0.00,40.00,6,4,18,0.00
2013-10-22,68.0,48.3,32.0,34.0,23.4,15.0,63,41,18,0.00,40.00,7,4,11,0.00
2013-10-23,72.0,50.9,32.0,32.0,26.4,19.0,74,43,18,0.00,40.00,5,4,10,0.00
2013-10-24,73.0,53.9,34.0,31.0,26.1,21.0,71,38,16,0.00,40.00,10,4,20,0.00
2013-10-25,65.0,51.0,39.0,43.0,33.3,21.0,84,53,31,0.00,40.00,7,3,20,0.00
2013-10-26,70.0,50.5,35.0,39.0,33.1,26.0,88,58,20,0.00,40.00,6,4,11,0.00
2013-10-27,69.0,50.8,36.0,36.0,30.6,24.0,75,50,24,0.00,40.00,10,4,20,0.00
2013-10-28,66.0,55.4,45.0,28.0,20.0,-99.9,52,28,14,0.00,40.00,20,11,36,0.00
2013-10-29,56.0,47.1,36.0,42.0,31.6,19.0,95,60,24,0.00,40.00,22,11,40,0.27
2013-10-30,42.0,36.1,32.0,40.0,33.6,29.0,99,90,78,0.00,40.00,6,3,17,0.06
2013-10-31,49.0,37.7,32.0,35.0,30.5,22.0,99,78,42,0.00,40.00,5,2,9,0.06
2013-11-1,58.0,40.6,28.0,36.0,29.6,22.0,96,68,36,0.00,40.00,5,3,11,0.00
2013-11-2,64.0,43.3,29.0,36.0,26.3,18.0,78,55,23,0.00,40.00,6,3,12,0.00
2013-11-3,61.0,47.7,33.0,30.0,22.2,14.0,74,40,21,0.00,40.00,18,9,31,0.00
2013-11-4,45.0,36.1,27.0,25.0,18.2,12.0,73,49,32,0.00,40.00,10,3,18,0.00
2013-11-5,44.0,34.1,28.0,31.0,19.6,11.0,98,60,28,0.00,40.00,10,5,22,0.01
2013-11-6,52.0,33.8,19.0,22.0,15.0,5.0,80,51,19,0.00,40.00,6,3,10,0.01
2013-11-7,59.0,40.0,26.0,29.0,21.6,15.0,79,51,25,0.00,40.00,6,3,10,0.00
2013-11-8,64.0,46.7,31.0,26.0,20.8,15.0,77,41,16,0.00,40.00,7,4,17,0.00
2013-11-9,66.0,47.4,31.0,28.0,21.5,13.0,67,39,18,0.00,40.00,7,4,12,0.00
2013-11-10,67.0,49.8,36.0,27.0,21.3,16.0,60,36,15,0.00,40.00,6,4,11,0.00
2013-11-11,66.0,48.1,32.0,29.0,22.0,17.0,71,40,17,0.00,40.00,7,4,12,0.00
2013-11-12,67.0,49.9,31.0,30.0,22.5,16.0,63,37,18,0.00,40.00,6,3,12,0.00
2013-11-13,58.0,45.3,31.0,29.0,24.7,16.0,72,46,27,0.00,40.00,5,2,9,0.00
2013-11-14,60.0,44.7,32.0,30.0,24.2,18.0,79,48,20,0.00,40.00,7,4,13,0.00
2013-11-15,54.0,42.7,28.0,39.0,26.0,15.0,84,54,29,0.00,40.00,14,7,34,0.00
2013-11-16,46.0,40.6,32.0,38.0,31.5,28.0,97,72,51,0.00,40.00,20,7,34,0.00
2013-11-17,58.0,45.2,35.0,34.0,29.1,25.0,75,55,33,0.00,40.00,9,4,18,0.00
2013-11-18,61.0,42.1,27.0,30.0,23.7,15.0,81,52,22,0.00,40.00,6,3,10,0.00
2013-11-19,55.0,41.9,29.0,34.0,27.4,19.0,74,57,35,0.00,40.00,7,2,12,0.00
2013-11-20,49.0,41.3,32.0,42.0,33.5,27.0,99,75,54,0.00,40.00,4,2,9,0.11
2013-11-21,47.0,40.0,37.0,42.0,37.5,35.0,99,91,76,0.00,40.00,6,2,23,0.05
2013-11-22,39.0,35.1,32.0,39.0,34.8,31.0,99,98,93,0.00,40.00,8,3,13,0.47
2013-11-23,39.0,34.9,32.0,37.0,34.6,32.0,99,98,91,0.00,40.00,6,2,9,0.47
2013-11-24,35.0,33.7,32.0,35.0,33.4,31.0,99,98,94,0.00,40.00,4,1,9,0.12
2013-11-25,49.0,36.3,28.0,36.0,29.8,23.0,99,79,53,0.00,40.00,8,2,13,0.11
2013-11-26,51.0,36.2,25.0,32.0,26.3,20.0,92,70,37,0.00,40.00,7,3,12,0.01
2013-11-27,49.0,35.5,25.0,36.0,27.8,20.0,88,75,50,0.00,40.00,5,3,8,0.00
2013-11-28,48.0,33.7,24.0,40.0,28.9,21.0,97,83,54,0.00,40.00,5,2,12,0.00
2013-11-29,34.0,29.6,25.0,32.0,29.2,24.0,99,98,90,0.00,40.00,3,1,7,0.00
2013-11-30,35.0,31.6,28.0,31.0,29.3,27.0,99,91,77,0.00,40.00,3,2,7,0.00
2013-12-1,38.0,32.8,29.0,32.0,28.7,26.0,96,85,72,0.00,40.00,5,2,8,0.00
2013-12-2,36.0,31.9,30.0,31.0,28.1,26.0,95,86,76,0.00,40.00,4,2,8,0.00
2013-12-3,53.0,38.7,27.0,31.0,24.4,15.0,97,62,31,0.00,40.00,17,7,39,0.00
2013-12-12,39.0,26.2,6.0,18.0,11.3,-3.0,86,56,33,0.00,40.00,4,2,8,0.01
2013-12-13,40.0,26.6,11.0,20.0,14.5,8.0,90,62,39,0.00,40.00,6,3,8,0.00
2013-12-14,43.0,23.5,10.0,20.0,12.3,1.0,85,65,34,0.00,40.00,5,3,9,0.01
2013-12-15,45.0,27.7,12.0,27.0,15.6,4.0,87,64,35,0.00,40.00,5,2,8,0.01
2013-12-16,49.0,35.4,18.0,28.0,19.9,13.0,82,57,32,0.00,40.00,5,2,8,0.01
2013-12-17,52.0,29.9,17.0,27.0,17.8,5.0,89,64,27,0.00,40.00,5,3,7,0.00
2013-12-18,50.0,32.9,20.0,28.0,21.3,9.0,87,65,36,0.00,40.00,6,2,11,0.00
2013-12-19,57.0,37.1,27.0,31.0,24.8,17.0,84,63,32,0.00,40.00,8,3,16,0.00
2013-12-20,37.0,33.2,29.0,35.0,31.5,29.0,99,93,86,0.00,40.00,5,1,9,0.14
2013-12-21,33.0,27.1,21.0,29.0,24.6,20.0,98,90,76,0.00,40.00,5,2,8,0.03
2013-12-22,42.0,23.9,12.0,23.0,15.0,6.0,95,71,35,0.00,40.00,5,3,10,0.01
2013-12-23,46.0,30.5,21.0,29.0,20.2,14.0,86,67,42,0.00,40.00,6,2,14,0.01
2013-12-24,47.0,28.6,19.0,25.0,18.2,10.0,88,67,41,0.00,40.00,6,2,14,0.00
2013-12-25,46.0,27.6,15.0,20.0,13.6,1.0,89,59,27,0.00,40.00,5,3,10,0.00
2013-12-26,45.0,26.8,12.0,18.0,11.2,3.0,82,55,26,0.00,40.00,5,3,8,0.00
2013-12-28,43.0,29.7,20.0,29.0,20.3,13.0,86,69,46,0.00,40.00,4,2,8,0.00
2013-12-29,43.0,28.1,18.0,21.0,16.3,10.0,92,65,36,0.00,40.00,8,4,13,0.00
2013-12-30,45.0,27.3,14.0,18.0,12.4,3.0,82,57,29,0.00,40.00,7,2,11,0.00
2013-12-31,48.0,31.6,21.0,25.0,18.7,12.0,80,61,34,0.00,40.00,5,2,7,0.00
2014-1-1,48.0,34.1,24.0,26.0,21.6,14.0,90,63,35,0.00,40.00,6,2,9,0.00
2014-1-2,48.0,30.4,18.0,24.0,14.4,6.0,72,53,29,0.00,40.00,5,2,9,0.00